Date String (YYYY-MM-DD hh:mm:ss) UTC,Instrument flags,Ambient pressure (hPa),Sample flow (lpm),Bypass flow (lpm),Sample temperature (°C),Ambient temperature (°C),ASC tube jacket temperature (°C),LED temperature (°C),Box temperature (°C),Sample RH (%),Span deviation,Mass concentration (μg/m³),Mass concentration (μg/m³),Mass concentration (μg/m³)
DateTimeUTC,F1_M11,P_M11,Q1_M11,Q2_M11,T1_M11,T2_M11,T3_M11,T4_M11,T5_M11,U1_M11,ZSPAN_M11,X0_M11,X2_M11,X1_M11
2021-09-11 05:00:00,,0828.6,4.99,0.00,29.5,28.1,00.0,38.4,31.2,10.2,0001.6,0015.87,0010.16,0009.45
2021-09-11 05:01:00,,0828.5,5.01,0.00,29.3,26.0,00.0,38.4,30.6,10.3,0001.2,0016.32,0010.14,0009.44
2021-09-11 05:02:00,,0828.5,5.00,0.00,29.2,25.4,00.0,38.3,30.4,10.4,0001.2,0016.10,0010.13,0009.45
2021-09-11 05:03:00,,0828.4,4.99,0.00,29.1,25.8,00.0,38.3,30.5,10.4,0001.3,0015.42,0010.12,0009.44
2021-09-11 05:04:00,,0828.5,5.00,0.00,29.1,26.2,00.0,38.3,30.6,10.4,0001.2,0015.90,0010.10,0009.43
2021-09-11 05:05:00,,0828.4,5.00,0.00,29.1,26.7,00.0,38.2,30.7,10.5,0001.1,0016.56,0010.13,0009.44
2021-09-11 05:06:00,,0828.5,5.01,0.00,29.1,27.1,00.0,38.2,30.8,10.4,0001.3,0016.85,0010.15,0009.46
2021-09-11 05:07:00,,0828.5,4.98,0.00,29.1,27.4,00.0,38.2,30.8,10.4,0001.2,0016.52,0010.13,0009.45
2021-09-11 05:08:00,,0828.5,5.00,0.00,29.1,27.7,00.0,38.2,30.9,10.5,0001.5,0016.26,0010.12,0009.44
2021-09-11 05:09:00,,0828.5,5.01,0.00,29.2,27.9,00.0,38.2,31.0,10.5,0001.4,0016.23,0010.09,0009.44
2021-09-11 05:10:00,,0828.5,4.99,0.00,29.2,28.1,00.0,38.2,31.1,10.4,0001.3,0016.32,0010.12,0009.45
2021-09-11 05:11:00,,0828.5,5.01,0.00,29.3,28.3,00.0,38.2,31.1,10.2,0001.2,0016.35,0010.12,0009.43
2021-09-11 05:12:00,,0828.5,5.00,0.00,29.3,28.4,00.0,38.3,31.2,10.3,0001.0,0015.88,0010.10,0009.43
2021-09-11 05:13:00,,0828.5,5.00,0.00,29.4,28.5,00.0,38.3,31.2,10.4,0000.6,0015.47,0010.10,0009.44
2021-09-11 05:14:00,,0828.5,5.00,0.00,29.4,28.6,00.0,38.3,31.3,10.5,0000.6,0015.35,0010.10,0009.45
2021-09-11 05:15:00,,0828.5,5.00,0.00,29.5,28.7,00.0,38.4,31.3,10.5,0000.8,0014.86,0010.13,0009.48
2021-09-11 05:16:00,,0828.5,5.00,0.00,29.5,28.7,00.0,38.4,31.4,10.5,0000.8,0014.13,0010.14,0009.49
2021-09-11 05:17:00,,0828.5,5.00,0.00,29.5,28.2,00.0,38.4,31.3,10.5,0001.2,0013.54,0010.09,0009.50
2021-09-11 05:18:00,,0828.5,5.01,0.00,29.4,26.6,00.0,38.4,30.9,10.6,0001.4,0013.66,0010.11,0009.51
2021-09-11 05:19:00,,0828.5,5.01,0.00,29.3,26.4,00.0,38.4,30.8,10.5,0001.3,0013.74,0010.10,0009.52
2021-09-11 05:20:00,,0828.5,5.00,0.00,29.3,26.7,00.0,38.4,30.8,10.5,0001.1,0013.69,0010.10,0009.52
2021-09-11 05:21:00,,0828.5,4.99,0.00,29.3,27.1,00.0,38.4,30.9,10.6,0001.4,0013.63,0010.09,0009.53
2021-09-11 05:22:00,,0828.5,5.01,0.00,29.3,27.4,00.0,38.4,31.0,10.7,0001.4,0013.65,0010.09,0009.55
2021-09-11 05:23:00,,0828.5,4.99,0.00,29.3,27.7,00.0,38.4,31.1,10.6,0001.4,0013.64,0010.10,0009.56
2021-09-11 05:24:00,,0828.5,4.99,0.00,29.3,28.0,00.0,38.4,31.1,10.6,0001.6,0013.69,0010.10,0009.58
2021-09-11 05:25:00,,0828.4,5.01,0.00,29.4,28.2,00.0,38.4,31.2,10.6,0001.5,0013.81,0010.16,0009.61
2021-09-11 05:26:00,,0828.4,5.00,0.00,29.4,28.3,00.0,38.4,31.2,10.4,0001.4,0014.28,0010.18,0009.62
2021-09-11 05:27:00,,0828.5,5.01,0.00,29.5,28.5,00.0,38.4,31.3,10.5,0001.6,0014.35,0010.14,0009.62
2021-09-11 05:28:00,,0828.5,4.99,0.00,29.5,28.6,00.0,38.4,31.3,10.6,0001.4,0014.95,0010.18,0009.62
2021-09-11 05:29:00,,0828.5,5.00,0.00,29.6,28.7,00.0,38.5,31.4,10.6,0001.4,0015.39,0010.16,0009.62
2021-09-11 05:30:00,,0828.5,4.99,0.00,29.6,28.5,00.0,38.5,31.4,10.6,0001.3,0015.82,0010.22,0009.64
2021-09-11 05:31:00,,0828.4,5.00,0.00,29.5,26.8,00.0,38.5,30.9,10.7,0001.3,0015.97,0010.29,0009.66
2021-09-11 05:32:00,,0828.3,4.99,0.00,29.3,25.2,00.0,38.4,30.4,10.7,0001.3,0016.35,0010.31,0009.66
2021-09-11 05:33:00,,0828.3,5.00,0.00,29.2,25.4,00.0,38.4,30.5,10.9,0001.2,0016.46,0010.33,0009.68
2021-09-11 05:34:00,,0828.3,5.01,0.00,29.1,25.9,00.0,38.3,30.6,11.0,0001.4,0016.73,0010.35,0009.69
2021-09-11 05:35:00,,0828.3,5.00,0.00,29.1,26.4,00.0,38.3,30.6,11.1,0001.7,0016.76,0010.32,0009.66
2021-09-11 05:36:00,,0828.3,4.99,0.00,29.1,26.8,00.0,38.3,30.7,11.1,0001.9,0016.70,0010.29,0009.65
2021-09-11 05:37:00,,0828.3,5.00,0.00,29.1,27.2,00.0,38.3,30.8,11.0,0002.1,0016.17,0010.25,0009.64
2021-09-11 05:38:00,,0828.3,5.00,0.00,29.1,27.5,00.0,38.3,30.9,10.8,0002.2,0016.35,0010.24,0009.63
2021-09-11 05:39:00,,0828.3,5.00,0.00,29.2,27.8,00.0,38.3,30.9,10.9,0002.1,0015.90,0010.19,0009.62
2021-09-11 05:40:00,,0828.3,4.99,0.00,29.2,28.0,00.0,38.3,31.0,10.9,0001.7,0015.49,0010.23,0009.62
2021-09-11 05:41:00,,0828.3,5.00,0.00,29.2,28.1,00.0,38.3,31.1,10.9,0001.8,0015.08,0010.17,0009.59
2021-09-11 05:42:00,,0828.3,5.01,0.00,29.3,28.3,00.0,38.3,31.1,10.8,0001.8,0015.07,0010.12,0009.59
2021-09-11 05:43:00,,0828.3,4.99,0.00,29.3,28.4,00.0,38.3,31.2,10.8,0001.6,0014.62,0010.09,0009.58
2021-09-11 05:44:00,,0828.3,4.99,0.00,29.4,28.5,00.0,38.3,31.2,10.8,0001.8,0014.67,0010.10,0009.59
2021-09-11 05:45:00,,0828.3,5.00,0.00,29.4,28.6,00.0,38.4,31.3,10.9,0002.0,0014.32,0010.08,0009.59
2021-09-11 05:46:00,,0828.3,5.01,0.00,29.5,28.6,00.0,38.4,31.3,10.8,0002.0,0014.18,0010.09,0009.60
2021-09-11 05:47:00,,0828.3,5.00,0.00,29.5,28.7,00.0,38.4,31.4,10.8,0002.1,0014.66,0010.10,0009.60
2021-09-11 05:48:00,,0828.3,5.00,0.00,29.6,28.8,00.0,38.4,31.4,10.8,0001.8,0014.97,0010.14,0009.61
2021-09-11 05:49:00,,0828.3,5.00,0.00,29.6,28.8,00.0,38.5,31.4,10.7,0001.5,0014.79,0010.19,0009.62
2021-09-11 05:50:00,,0828.2,4.99,0.00,29.6,27.3,00.0,38.5,31.0,10.5,0001.6,0014.61,0010.23,0009.64
2021-09-11 05:51:00,,0828.3,5.01,0.00,29.4,26.2,00.0,38.5,30.8,10.5,0001.8,0014.61,0010.22,0009.65
2021-09-11 05:52:00,,0828.3,5.00,0.00,29.3,26.4,00.0,38.5,30.8,10.6,0001.9,0014.72,0010.24,0009.68
2021-09-11 05:53:00,,0828.3,4.99,0.00,29.3,26.8,00.0,38.4,30.8,10.5,0002.1,0014.66,0010.25,0009.68
2021-09-11 05:54:00,,0828.3,5.00,0.00,29.3,27.1,00.0,38.4,30.9,10.5,0002.0,0015.48,0010.34,0009.71
2021-09-11 05:55:00,,0828.3,5.01,0.00,29.3,27.5,00.0,38.4,31.0,10.5,0002.0,0015.36,0010.31,0009.68
2021-09-11 05:56:00,,0828.3,5.00,0.00,29.3,27.8,00.0,38.4,31.0,10.5,0001.8,0015.37,0010.31,0009.67
2021-09-11 05:57:00,,0828.3,5.00,0.00,29.3,28.0,00.0,38.4,31.1,10.5,0001.6,0015.35,0010.30,0009.65
2021-09-11 05:58:00,,0828.3,5.00,0.00,29.4,28.2,00.0,38.4,31.2,10.5,0001.4,0014.90,0010.31,0009.65
2021-09-11 05:59:00,,0828.3,5.01,0.00,29.4,28.3,00.0,38.4,31.2,10.4,0001.6,0014.61,0010.27,0009.64
